sat.trackr.live / text

‹ back to catalog

INTELSAT 17 (IS-17)

NORAD 37238 · 2010-065B

PAYLOAD ACTIVE UNKNOWN

§ Identity

Operator
Country
ITSO
Launch date
2010-11-26
Launch site
FRGUI
Launch vehicle
Mass (kg)
RCS (m²)
6.31

Purposes: comms

External: N2YO · Heavens-Above · Gunter

§ Orbital elements

Epoch: 2026-09-09T18:59:38.732928Z

Period
1,436.11 min
Inclination
0.0181°
Eccentricity
0.0002593
Mean motion
1.00270849 rev/d
Perigee alt
35,775.9 km
Apogee alt
35,797.8 km
Semi-major
42,165.0 km
B*
0.0000e+0
RAAN
224.9706°
Arg perigee
303.3525°
Mean anomaly
171.4276°
Rev number
5,409

§ Raw data

INTELSAT 17 (IS-17)1 37238U 10065B   26252.79142052 -.00000022  00000+0  00000+0 0  99952 37238   0.0181 224.9706 0002593 303.3525 171.4276  1.00270849 54092

JSON: /api/v1/satellites/37238 · /tle

For live sub-satellite position, see the globe view (requires WebGL).

§ Visibility from observer

Set your observer location to see the next 7 days of passes ≥ 10°. The values pass through the URL so the page stays shareable.

No JS? Fill the form by hand. The geolocation button needs JavaScript.